FW5236 Weather Reports


Display with metric or nautical units.
time (UTC)temp
F
wind
direction
speed
MPH
gust
MPH
rain 1hr
in
rain 24hr
in
rain mn
in
humidity
%
barometer
mb
20260504190031 78 32 1.0 7.0 0.00 0.00 0.00 39 1012.3
20260504184531 77 43 1.0 5.0 0.00 0.00 0.00 40 1012.4
20260504183031 77 45 2.0 5.0 0.00 0.00 0.00 41 1012.4
20260504181529 77 46 1.0 5.0 0.00 0.00 0.00 42 1012.4
20260504180031 77 28 1.0 5.0 0.00 0.00 0.00 42 1012.4
20260504174531 78 46 0.0 3.0 0.00 0.00 0.00 42 1012.5
20260504173103 77 41 0.0 2.0 0.00 0.00 0.00 42 1012.5
20260504110107 53 227 2.0 3.0 0.00 0.00 0.00 62 1012.1
20260504090104 57 234 3.0 5.0 0.00 0.00 0.00 58 1012.3
20260504081530 58 233 2.0 4.0 0.00 0.00 0.00 57 1012.5
20260504060107 60 228 0.0 3.0 0.00 0.00 0.00 56 1012.3
20260504050107 64 241 2.0 5.0 0.00 0.00 0.00 49 1012.1
20260504044530 64 237 2.0 4.0 0.00 0.00 0.00 46 1012.1
20260504041607 63 236 1.0 3.0 0.00 0.00 0.00 50 1011.8
20260504040037 63 165 0.0 2.0 0.00 0.00 0.00 52 1011.7
20260504033031 70 157 0.0 1.0 0.00 0.00 0.00 41 1011.3
20260504031532 72 157 0.0 1.0 0.00 0.00 0.00 40 1011.2
20260504030029 74 157 0.0 1.0 0.00 0.00 0.00 39 1011.1
20260504024532 81 157 0.0 1.0 0.00 0.00 0.00 36 1011.0
20260504021531 85 157 0.0 0.0 0.00 0.00 0.00 30 1011.1
20260504020030 88 131 0.0 1.0 0.00 0.00 0.00 27 1011.2
20260504014606 89 112 0.0 2.0 0.00 0.00 0.00 25 1011.3
20260504013032 90 128 0.0 3.0 0.00 0.00 0.00 24 1011.4
20260504011530 90 136 0.0 3.0 0.00 0.00 0.00 24 1011.5
20260504010031 90 157 0.0 3.0 0.00 0.00 0.00 24 1011.8
20260504004530 91 141 0.0 3.0 0.00 0.00 0.00 23 1011.9
20260504001531 90 142 0.0 3.0 0.00 0.00 0.00 23 1012.1
20260503234530 88 151 0.0 4.0 0.00 0.00 0.00 23 1012.4
20260503233033 89 150 1.0 5.0 0.00 0.00 0.00 22 1012.6
20260503231530 88 132 1.0 3.0 0.00 0.00 0.00 23 1012.8
20260503230032 88 133 2.0 7.0 0.00 0.00 0.00 24 1013.1
20260503223032 87 156 2.0 7.0 0.00 0.00 0.00 25 1013.6
20260503221529 87 136 1.0 4.0 0.00 0.00 0.00 25 1013.8
20260503214529 85 157 1.0 4.0 0.00 0.00 0.00 25 1014.2
20260503213030 84 152 2.0 7.0 0.00 0.00 0.00 26 1014.4
20260503210105 85 155 1.0 4.0 0.00 0.00 0.00 27 1014.8
20260503204529 84 136 2.0 5.0 0.00 0.00 0.00 28 1015.0
20260503203031 83 158 1.0 5.0 0.00 0.00 0.00 30 1015.2
20260503201530 83 165 2.0 6.0 0.00 0.00 0.00 31 1015.4
20260503200032 84 153 1.0 7.0 0.00 0.00 0.00 30 1015.5
20260503193031 83 163 1.0 4.0 0.00 0.00 0.00 32 1015.9
20260503191530 83 165 1.0 6.0 0.00 0.00 0.00 31 1016.1